DW2380 Paimio FI current weather conditions

sailwx.info

Wind from 360

Air temperature 7.2° C
Dewpoint 6.3° C

Last reported at 2014-Sep-01 22:45 UTC.
Time now 2014-Sep-01 23:39 UTC

Location: N 60°28' E 022°40'.
View on Google Maps.

See reports from other nearby stations

  
Tides and Currents Weather Stations Pressure Air Temp Water Temp Dewpoint Dewpoint Depression Visibility Wind Speed Wind Dir Waves Ship Positions
date/time (UTC)wind fromknots sea level pressurealtimeterstation pressurevisibilityair tempwater tempwave heightnotes
2014-Sep-01 22:45 360 7.2
2014-Sep-01 22:30 360 7.2
2014-Sep-01 22:15 360 6.7
2014-Sep-01 22:00 360 7.2
2014-Sep-01 21:45 360 7.2
2014-Sep-01 21:30 360 6.7
2014-Sep-01 21:15 360 7.2
2014-Sep-01 21:00 360 7.8
2014-Sep-01 20:45 360 7.8
2014-Sep-01 20:30 360 7.8
2014-Sep-01 20:15 360 8.3
2014-Sep-01 20:01 360 8.3
2014-Sep-01 19:46 360 8.9
2014-Sep-01 19:31 360 8.3
2014-Sep-01 19:16 360 8.3
2014-Sep-01 18:59 360 8.3
2014-Sep-01 18:44 360 7.8
2014-Sep-01 18:29 360 7.2
2014-Sep-01 18:14 360 7.8
2014-Sep-01 17:59 360 8.3
2014-Sep-01 17:44 360 10.0
2014-Sep-01 17:28 360 10.6
2014-Sep-01 17:13 360 11.7
2014-Sep-01 16:58 360 12.8
2014-Sep-01 16:43 360 0 gusting 3 12.2
2014-Sep-01 16:28 360 0 gusting 4 13.3
2014-Sep-01 16:13 016 14.4
2014-Sep-01 15:58 017 15.0
2014-Sep-01 15:43 016 15.0
2014-Sep-01 15:28 011 15.0
2014-Sep-01 15:12 360 2 gusting 7 16.1
2014-Sep-01 14:57 360 0 gusting 4 16.7
2014-Sep-01 14:42 360 16.7
2014-Sep-01 14:27 019 2 gusting 6 16.7
2014-Sep-01 14:12 360 16.7
2014-Sep-01 13:57 025 0 gusting 6 16.7
2014-Sep-01 13:41 360 0 gusting 6 16.7
2014-Sep-01 13:26 360 0 gusting 6 16.1
2014-Sep-01 13:12 360 0 gusting 7 16.7
2014-Sep-01 12:56 360 16.7
2014-Sep-01 12:41 360 15.6
2014-Sep-01 12:26 360 0 gusting 6 16.1
2014-Sep-01 12:11 023 3 gusting 10 16.7
2014-Sep-01 11:56 360 0 gusting 6 16.1
2014-Sep-01 11:41 360 0 gusting 5 16.1
2014-Sep-01 11:26 015 0 gusting 6 15.6
2014-Sep-01 11:11 360 0 gusting 3 16.1
2014-Sep-01 10:56 360 1 gusting 7 16.7
2014-Sep-01 10:41 360 2 gusting 9 15.6
2014-Sep-01 10:26 360 2 gusting 6 16.1
2014-Sep-01 10:11 360 0 gusting 8 15.6
2014-Sep-01 09:56 360 4 gusting 8 16.1
2014-Sep-01 09:41 012 15.6
2014-Sep-01 09:25 360 1 gusting 8 15.0
2014-Sep-01 09:10 360 4 gusting 9 15.0
2014-Sep-01 08:55 024 5 gusting 8 15.0
2014-Sep-01 08:40 015 0 gusting 6 15.0
2014-Sep-01 08:25 360 2 gusting 7 15.0
2014-Sep-01 08:10 360 4 gusting 7 14.4
2014-Sep-01 07:55 360 3 gusting 9 13.9
2014-Sep-01 07:40 024 3 gusting 9 13.3
2014-Sep-01 07:25 360 5 gusting 7 13.3
2014-Sep-01 07:10 360 3 gusting 6 12.8
2014-Sep-01 06:55 360 2 gusting 7 12.2
2014-Sep-01 06:40 360 3 gusting 7 11.7
2014-Sep-01 06:25 360 10.6
2014-Sep-01 06:10 015 9.4
2014-Sep-01 05:55 016 8.9
2014-Sep-01 05:40 011 7.8
2014-Sep-01 05:25 010 7.8
2014-Sep-01 05:10 010 6.7
2014-Sep-01 04:55 026 6.1
2014-Sep-01 04:39 028 5.0
2014-Sep-01 04:24 360 4.4
2014-Sep-01 04:09 028 3.9
2014-Sep-01 03:54 027 3.9
2014-Sep-01 03:39 028 4.4
2014-Sep-01 03:24 026 4.4
2014-Sep-01 03:09 026 3.9
2014-Sep-01 02:54 024 3.9
2014-Sep-01 02:39 025 4.4
2014-Sep-01 02:24 026 4.4
2014-Sep-01 02:09 026 4.4
2014-Sep-01 01:54 026 5.0
2014-Sep-01 01:39 024 5.6
2014-Sep-01 01:24 024 5.6
2014-Sep-01 01:09 024 5.6
2014-Sep-01 00:54 026 5.6
2014-Sep-01 00:39 026 5.0
2014-Sep-01 00:24 025 5.0
2014-Sep-01 00:09 025 5.6
2014-Aug-31 23:54 024 0 gusting 2 5.6
2014-Aug-31 23:39 025 0 gusting 2 5.6
2014-Aug-31 23:24 025 6.1
2014-Aug-31 23:09 026 6.1
2014-Aug-31 22:54 026 0 gusting 2 6.7
2014-Aug-31 22:39 024 6.7
2014-Aug-31 22:24 026 6.7
2014-Aug-31 22:09 026 6.7
2014-Aug-31 21:54 026 7.2
2014-Aug-31 21:39 026 7.8
2014-Aug-31 21:24 026 8.3
2014-Aug-31 21:09 026 8.3
2014-Aug-31 20:54 026 8.9
2014-Aug-31 20:39 024 9.4
2014-Aug-31 20:23 025 9.4
2014-Aug-31 20:08 024 10.6
2014-Aug-31 19:53 026 10.6
2014-Aug-31 19:38 025 11.7
2014-Aug-31 19:23 024 11.7
2014-Aug-31 19:08 360 12.2
2014-Aug-31 18:53 360 12.8
2014-Aug-31 18:38 024 12.8
2014-Aug-31 18:23 026 12.8
2014-Aug-31 18:08 360 1 gusting 7 12.8
2014-Aug-31 17:53 360 3 gusting 7 12.8
2014-Aug-31 17:38 360 2 gusting 6 13.3
2014-Aug-31 17:23 010 0 gusting 4 13.3
2014-Aug-31 17:08 014 0 gusting 3 13.9
2014-Aug-31 16:53 024 13.9
2014-Aug-31 16:38 360 0 gusting 3 14.4
2014-Aug-31 16:23 025 0 gusting 6 15.0
2014-Aug-31 16:08 360 2 gusting 5 15.0
2014-Aug-31 15:53 360 1 gusting 6 16.1
2014-Aug-31 15:38 021 3 gusting 5 16.1
2014-Aug-31 15:23 360 4 gusting 8 15.6
2014-Aug-31 15:08 360 1 gusting 6 16.7
2014-Aug-31 14:53 360 0 gusting 5 16.1
2014-Aug-31 14:39
2014-Aug-31 14:34
2014-Aug-31 12:43 360 6 gusting 9 18.9
2014-Aug-31 12:28 360 18.9
2014-Aug-31 12:13 360 2 gusting 10 18.3
2014-Aug-31 11:57 360 2 gusting 8 17.8
2014-Aug-31 11:42 360 2 gusting 8 17.2
2014-Aug-31 11:27 360 5 gusting 8 16.7
2014-Aug-31 11:12 360 1 gusting 6 16.7
2014-Aug-31 10:57 022 16.1
2014-Aug-31 10:42 024 0 gusting 6 16.1
2014-Aug-31 10:27 360 2 gusting 6 16.7
2014-Aug-31 10:11 360 4 gusting 7 17.8
2014-Aug-31 09:56 360 3 gusting 7 18.3
2014-Aug-31 09:41 360 2 gusting 7 18.3
2014-Aug-31 09:26 360 6 gusting 11 17.2
2014-Aug-31 09:11 360 1 gusting 9 16.7
2014-Aug-31 08:56 360 5 gusting 10 16.7
2014-Aug-31 08:41 360 4 gusting 9 16.1
2014-Aug-31 08:26 360 7 gusting 13 16.1
2014-Aug-31 08:11 360 5 gusting 9 15.6
2014-Aug-31 07:56 360 4 gusting 11 15.0
2014-Aug-31 07:41 019 4 gusting 10 14.4
2014-Aug-31 07:24 360 5 gusting 8 14.4
2014-Aug-31 07:09 360 4 gusting 10 13.9
2014-Aug-31 06:54 360 4 gusting 10 12.8
2014-Aug-31 06:39 360 5 gusting 10 11.7
2014-Aug-31 06:24 360 2 gusting 6 10.6
2014-Aug-31 06:08 360 2 gusting 6 10.0
2014-Aug-31 05:53 360 2 gusting 6 9.4
2014-Aug-31 05:38 360 8.3
2014-Aug-31 05:23 015 7.8
2014-Aug-31 05:08 015 1 gusting 4 7.2
2014-Aug-31 04:53 014 0 gusting 2 6.1
2014-Aug-31 04:38 014 5.6
2014-Aug-31 04:23 360 5.0
2014-Aug-31 04:08 013 5.0
2014-Aug-31 03:53 018 4.4
2014-Aug-31 03:38 013 4.4
2014-Aug-31 03:23 360 4.4
2014-Aug-31 03:08 013 4.4
2014-Aug-31 02:53 360 4.4
2014-Aug-31 02:38 013 4.4
2014-Aug-31 02:23 360 3.9
2014-Aug-31 02:08 360 4.4
2014-Aug-31 01:53 013 4.4
2014-Aug-31 01:38 013 4.4
2014-Aug-31 01:23 360 4.4
2014-Aug-31 01:08 017 5.0
2014-Aug-31 00:53 017 5.0
2014-Aug-31 00:38 013 5.0
2014-Aug-31 00:23 360 5.6
2014-Aug-31 00:08 360 5.6
2014-Aug-30 23:53 360 5.6
2014-Aug-30 23:38 013 5.6
2014-Aug-30 23:22 013 5.6
2014-Aug-30 23:07 013 0 gusting 2 5.6